Overview Statistics Trail Chart Weather Telemetry Raw packets
 

This is the latest recevied weather packets stored in our database for station/object WX5KDM. If no packets are shown the sender has not sent any weather packets the latest 10 day(s).

<< 46 47 48 49 50 51 52 >>
Time Temp. Humidity Pressure Rain* Wind** Luminosity Snow
1788305316 34.44° C 51% 1016.8 hPa 0 mm - - -
1788305011 34.44° C 50% 1016.9 hPa 0 mm - - -
1788304707 34.44° C 50% 1016.8 hPa 0 mm - - -
1788304403 35° C 50% 1017 hPa 0 mm - - -
1788304099 35° C 49% 1016.9 hPa 0 mm - - -
1788303798 35° C 48% 1017 hPa 0 mm - - -
1788303494 35° C 49% 1016.8 hPa 0 mm - - -
1788303188 35.56° C 47% 1016.7 hPa 0 mm - - -
1788302884 35.56° C 46% 1016.6 hPa 0 mm - - -
1788302580 35.56° C 46% 1016.9 hPa 0 mm - - -
1788302276 36.11° C 45% 1016.8 hPa 0 mm - - -
1788301975 36.11° C 46% 1016.7 hPa 0 mm - - -
1788301672 36.11° C 45% 1016.6 hPa 0 mm - - -
1788301368 36.11° C 45% 1016.9 hPa 0 mm - - -
1788301063 36.67° C 44% 1016.7 hPa 0 mm - - -
1788300759 36.11° C 44% 1016.8 hPa 0 mm - - -
1788300458 36.11° C 43% 1016.8 hPa 0 mm - - -
1788300153 36.11° C 45% 1016.8 hPa 0 mm - - -
1788299851 36.11° C 43% 1016.8 hPa 0 mm - - -
1788299546 35.56° C 46% 1016.9 hPa 0 mm - - -
1788299244 35.56° C 44% 1016.8 hPa 0 mm - - -
1788298938 36.11° C 43% 1017.1 hPa 0 mm - - -
1788298632 36.67° C 42% 1016.8 hPa 0 mm - - -
1788298327 36.67° C 42% 1016.9 hPa 0 mm - - -
1788298027 36.67° C 41% 1016.9 hPa 0 mm - - -

* Rain latest hour (hover to see other rain measurements)
** Current wind speed in m/s (hover to see current wind gust speed)